Location: Lombard
(41.8800°N, 88.0080°W)
Time: 16:24:41
(UTC-06:00)

Vanguard 3 - Pass Details

Date: 15 December 2023
Orbit: 508 x 3239 km, 33.4° (Epoch: 23 February)

Event Time Altitude Azimuth Distance (km) Brightness Sun altitude
Rises 19:22:54 0° 249° (WSW) 7,198 13.0 -32.8°
Reaches altitude 10° 19:27:57 10° 246° (WSW) 6,131 12.3 -33.7°
Maximum altitude 19:46:16 60° 174° (S) 2,856 9.6 -37.1°
Enters shadow 19:48:43 55° 142° (SE) 2,802 9.4 -37.6°
